PROBA-2

Last updated on Tue Sep 22 2026 00:03:51 GMT+0000 (Coordinated Universal Time)

1 36037U 09059B 26264.25002762 .00000099 00000+0 33498-4 0 9994 2 36037 98.2481 86.2997 0013004 349.6124 10.4803 14.54895470895499
UTC large
Height (km)
Speed (km/s)
/
Latitude / Longitude
Inclination (degrees)
Orbital Period (minutes)
Azimuth
Elevation
Range (km)
Doppler Factor

Next 0 passes for location: London (51.5072 / 0.1276)

No passes found over London.
PROBA-2